Temperature
5 4 3 1 -0 -1 -2 -2 -3 -3 -3 -4 -4 -4 -4 -4 -5 -5 -5 -5 -6 -6 -6 -6 -6 -6 -6 -6 -6 -5 -5 -4 -4 -2 1 4 5 6 8 10 10 10 11
5 4 2 1 -1 -2 -3 -3 -4 -4 -5 -5 -6 -6 -6 -6 -6 -6 -6 -7 -7 -7 -7 -7 -7 -6 -6 -6 -6 -6 -5 -5 -5 -4 -3 -1 2 5 7 8 9 10 10
4 3 2 0 -1 -3 -3 -4 -5 -5 -6 -6 -6 -6 -6 -6 -6 -7 -7 -7 -8 -8 -7 -8 -8 -8 -7 -7 -6 -6 -6 -5 -5 -5 -4 -3 -1 -1 5 7 8 9 10
3 2 1 -1 -2 -3 -4 -5 -6 -6 -6 -7 -7 -8 -8 -8 -8 -8 -8 -8 -8 -8 -8 -8 -9 -9 -8 -8 -7 -7 -6 -6 -5 -5 -5 -4 -4 -3 -1 5 7 7 8
3 1 -0 -1 -3 -4 -5 -5 -6 -6 -7 -7 -8 -8 -9 -9 -9 -9 -8 -8 -8 -9 -9 -9 -9 -9 -9 -9 -8 -8 -7 -6 -6 -6 -5 -5 -4 -4 -3 -2 3 5 6
2 0 -1 -2 -3 -4 -5 -6 -6 -7 -7 -7 -8 -9 -9 -9 -9 -9 -9 -9 -9 -9 -10 -10 -10 -10 -10 -10 -9 -9 -8 -7 -7 -6 -6 -5 -5 -4 -4 -2 -1 0 4
1 -0 -2 -3 -4 -5 -5 -6 -7 -7 -7 -8 -8 -9 -10 -10 -10 -10 -10 -10 -10 -10 -10 -11 -11 -11 -10 -10 -10 -9 -8 -8 -7 -7 -6 -6 -5 -5 -4 -4 -3 -1 1
0 -1 -2 -3 -4 -5 -5 -6 -6 -7 -8 -8 -9 -9 -10 -10 -11 -11 -11 -11 -11 -11 -11 -11 -11 -11 -11 -11 -11 -10 -9 -8 -8 -7 -7 -6 -6 -6 -5 -4 -3 -2 -0
-0 -1 -2 -3 -4 -5 -6 -6 -7 -7 -8 -9 -9 -10 -10 -11 -11 -11 -11 -12 -12 -12 -12 -12 -12 -12 -12 -11 -11 -10 -9 -9 -8 -7 -7 -7 -6 -6 -5 -4 -3 -3 -1
-1 -2 -3 -4 -4 -5 -6 -7 -7 -8 -9 -9 -10 -10 -11 -11 -12 -12 -12 -12 -12 -12 -12 -12 -12 -12 -12 -12 -11 -10 -9 -9 -8 -7 -7 -7 -6 -6 -5 -4 -3 -3 -2
-1 -2 -3 -4 -5 -6 -6 -7 -8 -9 -9 -10 -10 -11 -11 -12 -12 -12 -12 -13 -13 -13 -13 -13 -13 -13 -12 -12 -11 -10 -9 -9 -8 -8 -7 -7 -7 -6 -5 -4 -3 -2 -2
-1 -3 -4 -4 -5 -6 -7 -8 -8 -9 -10 -10 -11 -11 -12 -12 -12 -13 -13 -13 -13 -13 -13 -14 -14 -13 -13 -12 -11 -10 -9 -9 -8 -8 -8 -7 -7 -6 -5 -4 -3 -2 -1
-2 -3 -4 -5 -6 -6 -7 -8 -9 -9 -10 -11 -11 -12 -12 -12 -13 -13 -13 -14 -14 -14 -14 -14 -14 -14 -13 -12 -11 -10 -9 -9 -9 -8 -8 -7 -7 -6 -5 -4 -3 -2 -1
-3 -4 -5 -5 -6 -7 -8 -9 -9 -10 -11 -11 -11 -12 -12 -13 -13 -14 -14 -14 -14 -14 -14 -14 -14 -14 -13 -12 -11 -10 -9 -8 -8 -8 -8 -7 -7 -6 -5 -4 -3 -2 -1
-3 -4 -5 -5 -6 -7 -8 -9 -10 -10 -11 -11 -12 -12 -12 -13 -14 -14 -14 -15 -14 -14 -14 -14 -14 -13 -13 -12 -10 -9 -8 -9 -9 -9 -8 -8 -7 -7 -6 -5 -4 -3 -2
-4 -5 -5 -6 -6 -8 -8 -9 -10 -10 -11 -11 -12 -12 -13 -13 -14 -14 -14 -15 -14 -14 -14 -14 -14 -13 -13 -12 -10 -9 -9 -9 -9 -9 -9 -9 -8 -8 -7 -7 -6 -4 -3
-4 -5 -5 -6 -7 -8 -9 -9 -9 -10 -11 -11 -12 -13 -13 -14 -14 -14 -14 -14 -14 -14 -14 -14 -14 -13 -13 -11 -9 -9 -9 -9 -9 -9 -9 -9 -9 -9 -8 -8 -7 -7 -6
-4 -5 -5 -6 -7 -8 -8 -9 -9 -10 -11 -12 -12 -13 -14 -14 -14 -14 -14 -14 -14 -14 -14 -14 -14 -13 -13 -11 -10 -10 -10 -10 -10 -10 -10 -10 -10 -10 -10 -9 -8 -8 -7
-4 -5 -6 -7 -7 -8 -8 -9 -9 -10 -11 -12 -12 -13 -14 -14 -14 -14 -14 -14 -14 -14 -14 -14 -14 -13 -13 -12 -10 -11 -10 -10 -11 -10 -10 -10 -10 -10 -10 -10 -10 -8 -7
-4 -5 -6 -7 -7 -8 -9 -9 -10 -11 -12 -12 -12 -13 -14 -14 -14 -14 -14 -14 -14 -14 -14 -14 -13 -13 -13 -12 -11 -11 -11 -12 -12 -11 -11 -11 -11 -10 -10 -11 -11 -10 -9
-4 -5 -6 -7 -8 -8 -9 -9 -10 -11 -11 -12 -12 -13 -13 -14 -13 -13 -13 -13 -14 -14 -14 -14 -13 -13 -13 -13 -12 -12 -12 -12 -13 -12 -12 -12 -11 -11 -11 -11 -11 -12 -10
-5 -5 -6 -7 -8 -8 -9 -9 -10 -10 -11 -12 -12 -13 -13 -13 -13 -14 -14 -13 -13 -14 -14 -14 -14 -13 -13 -13 -13 -12 -13 -13 -13 -13 -13 -12 -12 -12 -12 -12 -12 -11 -10
-5 -6 -6 -7 -7 -8 -8 -9 -10 -10 -10 -11 -12 -12 -13 -13 -13 -14 -14 -14 -13 -13 -14 -14 -14 -14 -14 -13 -13 -14 -14 -14 -14 -14 -13 -13 -13 -13 -13 -13 -12 -11 -11
-5 -6 -6 -7 -7 -8 -8 -9 -9 -9 -10 -11 -12 -12 -13 -13 -13 -14 -14 -13 -13 -13 -14 -14 -14 -14 -14 -13 -14 -14 -14 -14 -14 -14 -14 -14 -14 -14 -14 -13 -13 -13 -13
-5 -6 -6 -7 -7 -8 -8 -8 -9 -9 -10 -11 -12 -12 -13 -13 -13 -14 -14 -13 -13 -13 -14 -14 -15 -14 -14 -13 -14 -14 -14 -14 -14 -14 -14 -14 -14 -14 -14 -14 -14 -14 -13
-5 -6 -6 -6 -7 -7 -8 -8 -8 -9 -10 -11 -12 -12 -13 -13 -13 -14 -14 -14 -14 -14 -14 -14 -14 -14 -14 -14 -14 -14 -14 -14 -14 -15 -15 -15 -15 -15 -15 -15 -15 -15 -15
Wind_Speed
8 9 10 10 10 10 12 13 13 14 14 11 11 11 11 11 13 18 21 22 22 23 20 17 18 18 12 13 15 15 15 13 12 12 14 12 11 13 13 13 12 10 8
9 10 10 9 10 10 11 12 12 13 13 11 11 9 9 9 13 18 20 21 22 21 20 18 14 16 12 12 14 15 11 11 11 11 11 7 8 7 11 10 11 12 9
10 10 10 10 10 10 11 14 12 12 14 18 14 12 7 9 9 10 8 19 22 21 18 18 18 15 11 11 14 14 14 11 10 9 7 6 6 12 11 12 12 10 7
9 10 10 10 9 9 9 10 11 9 13 16 11 13 12 12 13 11 9 18 22 21 18 17 18 16 13 12 14 14 14 12 11 9 7 9 10 7 8 12 12 14 13
10 10 10 9 8 9 8 9 10 9 11 13 10 10 10 10 10 11 12 10 17 20 20 19 17 15 12 11 12 15 15 12 11 10 8 8 9 11 9 14 16 12 11
10 9 9 9 8 9 8 9 10 10 9 10 9 10 11 11 13 13 12 11 9 13 18 21 19 17 13 12 13 13 16 14 13 11 10 9 8 9 9 11 17 17 15
9 9 9 9 9 9 9 9 10 11 11 10 10 10 10 10 11 11 11 12 11 10 8 19 18 16 16 17 17 13 15 14 14 12 10 10 10 11 12 13 15 18 16
8 8 9 8 8 9 10 10 10 11 11 10 10 8 8 8 7 10 10 10 10 9 15 19 19 19 19 19 16 11 14 14 14 15 13 10 10 11 12 13 13 16 16
8 8 8 8 8 9 9 10 10 11 11 11 11 10 8 9 9 9 9 7 10 16 20 19 17 19 19 18 15 12 15 15 14 14 13 11 10 11 12 12 13 14 15
8 8 8 8 8 7 8 9 9 10 10 11 11 13 9 9 10 9 11 8 13 18 17 15 14 16 17 17 13 14 15 17 16 13 12 12 10 12 12 12 13 14 15
8 8 8 8 7 7 8 8 8 9 9 10 10 11 11 10 11 8 9 11 13 15 14 14 13 15 16 14 15 17 18 19 16 13 13 14 14 13 12 12 13 14 15
8 8 8 8 8 8 8 8 8 9 9 10 10 11 11 9 11 11 11 16 14 15 16 16 14 17 17 16 17 18 18 19 15 13 14 14 13 15 13 12 12 12 12
8 8 8 8 9 9 9 9 9 9 9 10 11 11 11 11 12 13 13 17 15 12 14 13 15 17 17 17 17 16 18 18 13 12 13 14 15 14 13 13 11 10 9
8 8 8 8 9 9 9 9 9 9 10 10 10 11 11 11 12 13 15 16 15 12 11 10 13 16 17 17 17 16 17 13 9 10 12 13 14 14 15 11 9 8 7
8 9 9 9 9 10 10 9 9 9 10 10 9 9 10 11 12 14 14 14 14 15 11 12 14 16 16 15 19 17 11 6 7 8 11 14 18 21 18 14 14 11 5
8 9 9 10 10 11 10 10 9 9 10 9 9 9 10 11 12 14 14 14 13 12 12 13 15 16 17 27 28 13 7 7 8 9 11 15 17 21 25 26 25 24 15
8 8 9 9 10 10 10 10 10 11 10 10 9 9 9 11 13 15 14 12 11 11 11 13 14 15 19 30 25 20 13 11 10 11 11 13 16 19 16 21 24 23 27
7 7 8 8 8 8 9 10 10 10 10 10 9 10 10 11 11 11 12 10 9 9 9 11 13 14 19 29 26 23 14 11 11 12 14 14 15 18 18 16 17 17 18
5 6 7 8 8 9 10 10 11 10 10 10 11 11 11 11 11 11 11 10 9 9 8 10 11 13 17 27 27 23 12 11 12 13 15 17 16 25 26 18 16 16 17
5 6 7 7 8 9 9 10 12 11 11 12 12 12 11 11 11 11 11 10 9 9 10 10 10 12 13 23 26 23 12 12 11 11 14 21 23 27 26 17 16 16 16
6 7 8 8 8 9 8 10 11 11 11 12 12 12 11 11 11 9 9 10 10 10 9 10 10 10 13 20 25 25 10 10 10 10 10 12 25 27 27 22 16 19 16
7 7 7 8 8 8 8 10 11 11 11 12 12 11 11 12 12 10 9 10 10 8 8 8 8 8 10 17 20 25 21 16 10 9 8 12 24 24 26 21 23 25 20
6 6 8 9 8 8 8 10 10 11 11 12 11 10 12 10 9 9 9 9 9 6 7 8 9 8 7 11 20 22 22 21 11 9 17 20 22 21 17 24 26 20 14
5 6 7 8 8 8 9 9 9 10 11 13 10 11 11 10 9 10 10 9 9 8 7 8 8 8 8 7 6 7 10 14 11 10 15 20 21 18 19 19 17 14 14
4 5 7 7 8 9 9 9 9 11 11 11 9 11 12 10 8 10 10 11 8 12 10 6 5 6 7 11 16 11 7 6 9 9 9 9 11 12 12 12 12 12 13
4 6 7 7 8 9 9 9 9 10 11 10 9 9 9 9 8 7 10 18 18 20 20 16 11 9 14 16 16 15 16 18 19 11 6 9 10 11 11 11 11 11 11
Wind_Direction
27 31 29 32 19 10 5 355 357 353 351 353 345 343 342 337 334 344 346 347 346 342 340 339 338 335 333 333 331 331 330 332 331 331 326 307 289 272 277 278 276 263 247
15 21 22 27 16 10 6 353 356 352 351 351 342 341 333 328 332 342 339 341 341 341 341 343 340 337 332 329 330 328 326 329 338 330 325 320 312 345 308 293 274 257 239
14 10 14 19 12 13 8 353 350 351 350 348 343 341 329 332 336 337 334 338 340 336 342 343 337 333 332 329 328 327 329 327 327 331 331 324 330 329 307 312 325 322 278
16 13 16 14 9 14 7 353 346 346 347 346 343 342 339 336 333 332 329 335 336 332 338 341 338 335 333 328 327 331 324 323 323 323 315 307 307 300 309 311 312 320 320
24 19 16 9 9 15 6 351 341 342 344 344 340 337 333 329 327 328 330 331 331 331 337 339 336 332 329 328 326 325 321 318 313 309 305 300 299 287 287 293 301 313 313
28 20 11 5 10 11 1 346 342 344 343 341 336 336 331 330 330 333 332 330 327 331 336 337 333 328 328 329 324 322 318 315 310 307 303 299 294 295 289 285 293 299 304
29 15 6 6 7 360 355 348 346 343 342 339 337 333 329 328 327 331 328 328 329 331 328 333 330 326 329 329 324 320 316 314 312 306 303 300 292 289 282 281 285 290 293
30 17 11 9 1 355 353 348 345 341 340 339 336 326 327 326 322 324 322 324 326 322 325 330 327 328 330 327 321 315 316 315 313 306 300 299 294 287 278 270 274 281 286
24 15 11 7 2 356 352 345 342 340 339 337 333 324 326 323 322 320 318 320 323 325 328 326 330 331 329 324 318 315 315 312 309 303 297 296 294 288 279 268 258 260 270
21 16 9 6 0 354 347 343 339 337 335 335 333 331 323 322 323 322 322 322 324 325 324 327 331 332 326 321 317 318 312 312 308 302 300 302 298 293 283 270 259 250 254
24 13 7 1 353 351 346 338 337 337 335 332 328 324 322 324 326 324 323 323 322 325 327 330 332 329 323 321 317 318 317 316 310 312 314 308 302 296 290 278 263 250 245
29 14 4 353 349 347 342 337 336 337 332 329 327 324 326 327 328 328 327 326 322 325 331 331 330 328 324 318 315 316 319 317 317 321 318 314 311 302 294 286 277 263 247
20 9 0 350 347 342 340 336 338 335 330 332 327 326 328 328 329 329 328 325 322 326 330 330 329 326 319 314 310 308 312 312 311 316 320 320 316 312 306 292 279 274 265
12 2 354 346 343 339 337 334 338 329 331 331 324 325 325 327 328 328 325 323 325 326 325 328 326 320 315 308 302 302 305 308 316 327 331 327 327 333 332 327 318 288 267
5 358 348 341 339 337 333 333 328 324 327 319 317 316 319 322 324 323 321 325 328 328 323 324 320 317 315 311 310 304 310 336 337 343 351 348 356 3 3 5 0 352 326
359 350 342 340 338 332 328 327 321 325 318 313 312 315 320 323 323 323 328 331 328 324 326 322 318 318 323 322 330 8 35 17 6 12 11 3 3 13 10 14 18 20 22
352 342 338 335 328 323 323 327 329 322 317 315 316 320 319 321 324 331 331 326 324 324 324 321 320 321 323 334 355 32 30 20 24 23 21 15 10 22 14 12 17 19 25
346 333 327 320 316 321 326 326 323 319 320 323 328 325 322 320 325 327 322 321 321 320 317 319 324 328 334 345 10 28 22 24 25 22 22 20 12 24 24 15 18 18 18
346 326 319 316 326 327 325 325 323 323 328 334 334 332 327 326 327 325 323 324 323 320 317 321 328 334 339 350 17 30 16 26 24 19 17 21 19 24 28 19 19 21 17
348 331 327 330 328 320 324 329 327 331 338 338 336 332 328 327 324 323 324 322 324 327 328 329 331 335 338 354 16 36 27 26 22 15 11 16 23 24 30 24 19 24 18
350 343 338 331 320 319 333 331 329 337 338 335 331 328 329 328 325 324 323 325 329 331 333 338 336 334 352 358 9 25 34 26 16 12 6 10 22 24 28 30 26 28 26
350 347 336 323 318 331 342 332 331 333 335 331 328 331 332 334 343 338 337 336 335 337 343 346 348 344 359 3 8 17 21 29 17 5 359 11 23 24 26 29 28 29 27
348 341 331 320 327 343 344 331 328 336 336 331 331 337 333 333 342 345 342 341 337 340 359 359 0 353 5 2 16 20 18 19 19 8 14 19 23 24 23 26 28 26 25
342 337 328 328 333 337 335 326 334 341 336 332 337 343 338 338 344 354 351 345 344 358 14 5 360 351 353 353 7 21 16 13 16 14 16 20 23 27 25 26 26 24 27
338 335 330 329 328 330 329 332 347 344 337 333 343 347 343 337 348 358 355 356 358 15 16 4 352 350 354 17 27 28 13 11 33 28 18 17 17 19 20 22 24 24 23
345 338 329 327 326 330 330 340 350 343 336 342 352 348 342 346 354 357 356 5 11 16 18 22 23 4 11 24 25 22 21 27 31 30 21 22 19 17 16 18 20 22 24
Height
1612 1610 1607 1603 1598 1593 1587 1582 1577 1571 1566 1560 1554 1548 1543 1539 1536 1533 1529 1524 1520 1515 1511 1507 1502 1498 1494 1490 1486 1482 1477 1472 1467 1461 1454 1451 1451 1452 1454 1456 1457 1460 1463
1611 1609 1606 1602 1597 1592 1587 1582 1576 1571 1566 1561 1555 1549 1543 1539 1536 1531 1527 1523 1519 1514 1511 1506 1501 1497 1493 1489 1485 1481 1477 1472 1468 1464 1457 1451 1446 1446 1447 1449 1451 1453 1456
1611 1608 1605 1601 1597 1592 1587 1582 1576 1571 1566 1560 1554 1547 1541 1537 1532 1527 1523 1520 1516 1513 1509 1504 1500 1495 1492 1488 1484 1480 1476 1471 1467 1466 1464 1459 1452 1445 1441 1441 1443 1445 1449
1609 1606 1603 1599 1595 1591 1586 1580 1575 1570 1564 1559 1553 1547 1541 1536 1531 1526 1521 1517 1513 1510 1506 1502 1498 1493 1489 1485 1481 1477 1474 1470 1466 1463 1462 1461 1457 1454 1443 1435 1435 1436 1438
1607 1605 1602 1599 1595 1590 1584 1579 1573 1568 1563 1557 1552 1546 1541 1536 1531 1525 1520 1514 1510 1506 1503 1499 1495 1491 1487 1482 1478 1473 1470 1467 1464 1461 1458 1455 1454 1452 1449 1440 1430 1429 1430
1607 1605 1602 1598 1593 1588 1582 1577 1571 1566 1561 1556 1550 1545 1540 1534 1528 1523 1517 1512 1507 1503 1499 1495 1491 1487 1484 1479 1474 1470 1467 1463 1460 1457 1454 1451 1449 1447 1446 1442 1434 1427 1424
1605 1603 1599 1595 1590 1585 1580 1575 1569 1563 1558 1553 1548 1544 1538 1533 1527 1522 1516 1511 1505 1500 1496 1492 1487 1483 1479 1475 1470 1466 1462 1459 1456 1452 1449 1446 1444 1443 1442 1440 1435 1427 1421
1603 1601 1597 1593 1588 1584 1579 1573 1567 1562 1556 1551 1546 1541 1537 1531 1526 1521 1516 1510 1505 1499 1494 1489 1484 1479 1474 1470 1465 1461 1458 1454 1450 1447 1444 1441 1438 1437 1435 1435 1434 1428 1420
1602 1600 1596 1591 1587 1582 1577 1571 1565 1560 1555 1549 1544 1539 1534 1529 1524 1519 1514 1509 1503 1497 1491 1486 1481 1475 1470 1465 1461 1457 1453 1449 1445 1442 1439 1436 1433 1430 1428 1427 1428 1428 1423
1602 1599 1595 1590 1586 1581 1576 1570 1564 1558 1553 1547 1542 1537 1532 1527 1522 1516 1511 1506 1500 1495 1489 1483 1478 1472 1466 1461 1457 1453 1448 1444 1440 1437 1434 1430 1427 1423 1420 1419 1419 1419 1419
1600 1597 1593 1589 1585 1579 1573 1567 1561 1555 1550 1544 1539 1534 1529 1524 1519 1513 1508 1502 1497 1492 1486 1480 1474 1468 1463 1458 1453 1448 1444 1439 1436 1433 1429 1425 1421 1417 1414 1411 1410 1410 1410
1598 1595 1591 1587 1582 1577 1571 1565 1559 1553 1547 1541 1536 1531 1526 1520 1515 1509 1504 1498 1493 1489 1483 1477 1471 1465 1460 1454 1449 1444 1440 1436 1433 1429 1425 1421 1416 1412 1408 1404 1402 1401 1401
1597 1593 1589 1585 1580 1575 1569 1563 1557 1551 1545 1539 1534 1528 1523 1517 1511 1506 1500 1495 1490 1485 1480 1474 1468 1462 1456 1451 1446 1441 1437 1434 1431 1427 1422 1418 1413 1408 1402 1398 1395 1393 1393
1596 1592 1588 1583 1578 1573 1567 1561 1555 1549 1543 1537 1531 1525 1520 1514 1508 1502 1496 1492 1487 1482 1477 1472 1466 1459 1453 1447 1442 1437 1433 1431 1428 1425 1420 1416 1411 1405 1398 1393 1389 1387 1387
1594 1590 1586 1581 1576 1571 1565 1559 1553 1547 1541 1535 1529 1523 1517 1511 1505 1499 1494 1489 1485 1480 1475 1470 1463 1457 1451 1444 1439 1432 1430 1429 1427 1423 1419 1414 1410 1403 1397 1391 1386 1383 1382
1592 1589 1584 1579 1574 1568 1563 1556 1551 1545 1539 1533 1527 1521 1515 1509 1503 1497 1492 1487 1482 1478 1473 1467 1461 1455 1449 1442 1435 1428 1428 1427 1425 1422 1419 1414 1409 1403 1396 1391 1385 1382 1380
1590 1587 1583 1578 1572 1567 1562 1556 1550 1544 1538 1532 1526 1520 1513 1507 1501 1496 1491 1486 1481 1476 1471 1466 1461 1455 1448 1441 1436 1431 1429 1428 1426 1423 1419 1415 1410 1404 1397 1391 1386 1382 1379
1589 1586 1581 1575 1570 1566 1561 1556 1549 1542 1537 1531 1524 1518 1512 1506 1500 1495 1490 1485 1480 1476 1471 1466 1461 1456 1449 1443 1438 1434 1432 1430 1428 1425 1422 1418 1412 1407 1400 1394 1388 1383 1379
1587 1584 1579 1574 1569 1564 1559 1554 1547 1541 1535 1529 1522 1516 1511 1505 1500 1494 1489 1485 1480 1475 1471 1467 1462 1457 1451 1446 1442 1438 1435 1432 1430 1427 1424 1421 1416 1411 1404 1397 1391 1386 1383
1585 1582 1578 1573 1568 1563 1558 1553 1546 1541 1534 1528 1522 1516 1511 1505 1500 1494 1489 1485 1480 1476 1471 1467 1463 1459 1454 1450 1446 1441 1438 1435 1433 1430 1427 1424 1420 1414 1408 1402 1396 1391 1386
1584 1582 1578 1573 1568 1563 1558 1552 1546 1541 1535 1528 1522 1516 1511 1505 1500 1495 1490 1485 1480 1475 1471 1467 1463 1461 1458 1453 1450 1446 1442 1439 1436 1433 1430 1427 1424 1418 1413 1408 1403 1399 1393
1584 1580 1577 1572 1568 1563 1558 1552 1547 1541 1535 1528 1522 1517 1511 1506 1501 1495 1490 1485 1480 1475 1471 1467 1464 1462 1459 1456 1453 1450 1446 1443 1439 1437 1434 1431 1427 1422 1417 1413 1408 1404 1398
1582 1579 1576 1572 1568 1563 1558 1552 1547 1541 1535 1528 1523 1518 1512 1507 1502 1496 1490 1485 1480 1476 1472 1468 1465 1463 1461 1458 1455 1451 1448 1445 1442 1439 1437 1433 1429 1425 1420 1417 1412 1407 1403
1581 1578 1574 1571 1567 1563 1558 1553 1547 1542 1535 1529 1524 1519 1513 1508 1503 1497 1492 1487 1482 1477 1473 1470 1467 1465 1463 1460 1457 1453 1450 1447 1444 1441 1438 1435 1432 1428 1424 1420 1416 1413 1410
1580 1577 1574 1570 1567 1563 1558 1553 1548 1542 1536 1530 1525 1520 1514 1510 1505 1499 1494 1490 1485 1481 1477 1472 1469 1467 1465 1463 1461 1458 1454 1452 1449 1445 1441 1438 1434 1431 1428 1425 1422 1419 1416
1579 1576 1573 1570 1567 1563 1558 1553 1548 1543 1536 1530 1526 1521 1516 1512 1507 1501 1495 1492 1488 1484 1479 1476 1473 1470 1468 1466 1463 1461 1458 1456 1453 1448 1445 1442 1439 1436 1433 1431 1428 1425 1422